Date String (YYYY-MM-DD hh:mm:ss) UTC,Instrument flags,Ambient pressure (hPa),Sample flow (lpm),Bypass flow (lpm),Sample temperature (°C),Ambient temperature (°C),ASC tube jacket temperature (°C),LED temperature (°C),Box temperature (°C),Sample RH (%),Span deviation,Mass concentration (μg/m³),Mass concentration (μg/m³),Mass concentration (μg/m³)
DateTimeUTC,F1_M11,P_M11,Q1_M11,Q2_M11,T1_M11,T2_M11,T3_M11,T4_M11,T5_M11,U1_M11,ZSPAN_M11,X0_M11,X2_M11,X1_M11
2021-12-07 12:00:00,,0818.5,4.99,0.00,21.9,21.5,00.0,31.1,23.5,10.2,0000.0,0019.54,0005.80,0003.54
2021-12-07 12:01:00,,0818.6,5.00,0.00,21.9,21.3,00.0,31.0,23.4,10.2,0000.0,0019.48,0005.81,0003.55
2021-12-07 12:02:00,,0818.6,5.00,0.00,21.8,21.2,00.0,31.0,23.4,10.2,0000.0,0019.84,0005.83,0003.54
2021-12-07 12:03:00,,0818.6,5.00,0.00,21.8,21.1,00.0,31.0,23.3,10.3,0000.0,0019.88,0005.86,0003.53
2021-12-07 12:04:00,,0818.7,4.99,0.00,21.7,21.0,00.0,31.0,23.2,10.4,0000.0,0020.11,0005.89,0003.53
2021-12-07 12:05:00,,0818.7,4.99,0.00,21.6,20.8,00.0,30.9,23.1,10.4,0000.0,0019.58,0005.84,0003.51
2021-12-07 12:06:00,,0818.5,5.02,0.00,21.6,20.7,00.0,30.9,23.1,10.5,0000.0,0019.30,0005.82,0003.50
2021-12-07 12:07:00,,0818.5,4.99,0.00,21.6,20.7,00.0,30.9,23.1,10.5,0000.0,0018.92,0005.80,0003.48
2021-12-07 12:08:00,,0818.6,5.02,0.00,21.6,20.7,00.0,30.8,23.1,10.5,0000.0,0018.87,0005.77,0003.47
2021-12-07 12:09:00,,0818.7,5.00,0.00,21.6,20.8,00.0,30.8,23.2,10.5,0000.0,0018.21,0005.76,0003.45
2021-12-07 12:10:00,,0818.7,5.01,0.00,21.6,20.8,00.0,30.8,23.2,10.5,0000.0,0018.33,0005.74,0003.44
2021-12-07 12:11:00,,0818.7,5.00,0.00,21.6,20.9,00.0,30.8,23.3,10.5,0000.0,0017.56,0005.65,0003.43
2021-12-07 12:12:00,,0818.7,4.99,0.00,21.6,20.9,00.0,30.8,23.3,10.5,0000.0,0017.17,0005.57,0003.40
2021-12-07 12:13:00,,0818.7,5.01,0.00,21.6,21.0,00.0,30.7,23.3,10.5,0000.0,0017.91,0005.54,0003.37
2021-12-07 12:14:00,,0818.8,4.99,0.00,21.7,21.8,00.0,30.8,23.5,10.5,0000.0,0019.10,0005.50,0003.36
2021-12-07 12:15:00,,0818.8,5.01,0.00,21.9,22.7,00.0,30.8,23.9,10.4,0000.0,0019.39,0005.38,0003.34
2021-12-07 12:16:00,,0818.9,4.99,0.00,22.0,23.0,00.0,30.9,24.0,10.2,0000.0,0019.28,0005.40,0003.33
2021-12-07 12:17:00,,0818.9,4.99,0.00,22.1,22.6,00.0,30.9,24.0,10.2,0000.0,0019.72,0005.49,0003.34
2021-12-07 12:18:00,,0819.0,5.00,0.00,22.0,22.3,00.0,30.9,23.9,10.2,0000.0,0020.60,0005.48,0003.35
2021-12-07 12:19:00,,0818.9,5.01,0.00,22.0,22.0,00.0,30.9,23.8,10.1,0000.0,0020.67,0005.46,0003.36
2021-12-07 12:20:00,,0819.0,5.00,0.00,22.0,21.9,00.0,30.9,23.7,10.1,0000.0,0020.86,0005.47,0003.36
2021-12-07 12:21:00,,0818.9,4.99,0.00,22.0,21.7,00.0,30.9,23.7,10.0,0000.0,0020.67,0005.44,0003.37
2021-12-07 12:22:00,,0818.9,4.99,0.00,21.9,21.6,00.0,30.9,23.6,10.0,0000.0,0020.39,0005.43,0003.37
2021-12-07 12:23:00,,0818.9,5.00,0.00,21.9,21.5,00.0,30.9,23.6,10.2,0000.0,0021.07,0005.47,0003.38
2021-12-07 12:24:00,,0818.9,5.00,0.00,21.9,21.4,00.0,30.9,23.6,10.5,0000.0,0020.61,0005.34,0003.33
2021-12-07 12:25:00,,0818.9,5.00,0.00,21.9,21.3,00.0,30.9,23.5,10.2,0000.0,0019.18,0005.36,0003.32
2021-12-07 12:26:00,,0819.0,4.99,0.00,21.8,21.3,00.0,30.9,23.5,10.1,0000.0,0018.50,0005.48,0003.36
2021-12-07 12:27:00,,0819.1,5.01,0.00,21.8,21.2,00.0,30.9,23.4,10.0,0000.0,0018.15,0005.56,0003.38
2021-12-07 12:28:00,,0819.2,4.99,0.00,21.8,21.2,00.0,30.9,23.4,10.0,0000.0,0018.20,0005.50,0003.41
2021-12-07 12:29:00,,0819.2,5.01,0.00,21.8,21.1,00.0,30.9,23.3,09.9,0000.0,0017.64,0005.46,0003.42
2021-12-07 12:30:00,,0819.1,4.99,0.00,21.7,21.1,00.0,30.9,23.4,09.9,0000.0,0017.49,0005.48,0003.44
2021-12-07 12:31:00,,0819.1,5.01,0.00,21.7,21.1,00.0,30.9,23.3,09.9,0000.0,0018.19,0005.59,0003.47
2021-12-07 12:32:00,,0819.1,5.01,0.00,21.7,21.0,00.0,30.8,23.3,09.9,0000.0,0019.16,0005.65,0003.49
2021-12-07 12:33:00,,0819.2,5.01,0.00,21.7,21.0,00.0,30.8,23.4,09.8,0000.0,0019.53,0005.71,0003.51
2021-12-07 12:34:00,,0819.3,5.00,0.00,21.7,21.0,00.0,30.8,23.4,09.8,0000.0,0019.42,0005.77,0003.54
2021-12-07 12:35:00,,0819.3,5.00,0.00,21.7,21.1,00.0,30.8,23.4,09.8,0000.0,0020.26,0005.99,0003.64
2021-12-07 12:36:00,,0819.2,4.99,0.00,21.7,21.1,00.0,30.8,23.4,09.8,0000.0,0020.85,0006.11,0003.73
2021-12-07 12:37:00,,0819.1,5.00,0.00,21.7,21.1,00.0,30.8,23.5,09.8,0000.0,0021.07,0006.04,0003.74
2021-12-07 12:38:00,,0819.1,4.99,0.00,21.8,21.1,00.0,30.8,23.5,09.9,0000.0,0020.80,0006.06,0003.75
2021-12-07 12:39:00,,0819.1,5.00,0.00,21.8,21.1,00.0,30.8,23.5,09.9,0000.0,0020.57,0006.07,0003.74
2021-12-07 12:40:00,,0819.1,5.01,0.00,21.8,21.1,00.0,30.8,23.5,09.9,0000.0,0020.74,0006.15,0003.75
2021-12-07 12:41:00,,0819.3,5.00,0.00,21.8,21.2,00.0,30.8,23.5,09.9,0000.0,0020.72,0006.20,0003.75
2021-12-07 12:42:00,,0819.3,4.99,0.00,21.8,21.6,00.0,30.8,23.6,09.8,0000.0,0020.68,0006.21,0003.76
2021-12-07 12:43:00,,0819.3,5.00,0.00,22.0,22.4,00.0,30.9,23.9,09.7,0000.0,0021.37,0006.22,0003.76
2021-12-07 12:44:00,,0819.4,5.00,0.00,22.1,22.9,00.0,30.9,24.1,09.7,0000.0,0022.54,0006.24,0003.77
2021-12-07 12:45:00,,0819.3,5.00,0.00,22.2,22.7,00.0,30.9,24.1,09.8,0000.0,0023.97,0006.27,0003.76
2021-12-07 12:46:00,,0819.3,5.01,0.00,22.2,22.5,00.0,31.0,24.1,09.8,0000.0,0023.64,0006.24,0003.74
2021-12-07 12:47:00,,0819.4,5.00,0.00,22.2,22.3,00.0,31.0,24.0,09.9,0000.0,0023.28,0006.25,0003.72
2021-12-07 12:48:00,,0819.5,4.99,0.00,22.2,22.1,00.0,31.0,23.9,09.9,0000.0,0023.40,0006.25,0003.69
2021-12-07 12:49:00,,0819.6,5.02,0.00,22.2,22.0,00.0,31.0,23.9,09.9,0000.0,0023.77,0006.18,0003.68
2021-12-07 12:50:00,,0819.5,4.99,0.00,22.1,21.9,00.0,31.0,23.9,09.9,0000.0,0024.70,0006.17,0003.66
2021-12-07 12:51:00,,0819.5,4.99,0.00,22.1,21.7,00.0,31.0,23.8,09.9,0000.0,0024.86,0006.09,0003.64
2021-12-07 12:52:00,,0819.4,5.00,0.00,22.1,21.6,00.0,31.0,23.8,10.1,0000.0,0024.26,0006.04,0003.61
2021-12-07 12:53:00,,0819.4,5.01,0.00,22.1,21.6,00.0,31.0,23.7,10.1,0000.0,0023.93,0005.98,0003.55
2021-12-07 12:54:00,,0819.4,5.00,0.00,22.0,21.5,00.0,31.0,23.7,10.2,0000.0,0022.62,0005.85,0003.49
2021-12-07 12:55:00,,0819.4,4.99,0.00,22.0,21.4,00.0,31.0,23.7,10.2,0000.0,0020.07,0005.64,0003.44
2021-12-07 12:56:00,,0819.5,5.01,0.00,22.0,21.4,00.0,31.0,23.7,10.1,0000.0,0018.74,0005.47,0003.37
2021-12-07 12:57:00,,0819.5,4.99,0.00,22.0,21.4,00.0,31.0,23.7,10.1,0000.0,0017.30,0005.37,0003.34
2021-12-07 12:58:00,,0819.6,5.00,0.00,22.0,21.4,00.0,31.0,23.7,10.1,0000.0,0016.95,0005.27,0003.28
2021-12-07 12:59:00,,0819.5,4.99,0.00,22.0,21.4,00.0,31.0,23.7,10.1,0000.0,0017.19,0005.30,0003.24
